This is the latest recevied weather packets stored in our database for station/object SV1JCZ-13. If no packets are shown the sender has not sent any weather packets the latest 1 day(s).
| Time | Temp. | Humidity | Pressure | Rain* | Wind** | Luminosity | Snow |
|---|---|---|---|---|---|---|---|
| 1778089764 | 20° C | 39% | 0 hPa | 0 mm | - | - | - |
| 1778089163 | 20.56° C | 40% | 0 hPa | 0 mm | - | - | - |
| 1778088443 | 20.56° C | 39% | 0 hPa | 0 mm | - | - | - |
| 1778087363 | 21.11° C | 40% | 0 hPa | 0 mm | - | - | - |
| 1778087003 | 21.67° C | 36% | 0 hPa | 0 mm | - | - | - |
| 1778086643 | 21.67° C | 36% | 0 hPa | 0 mm | - | - | - |
| 1778086283 | 22.22° C | 35% | 0 hPa | 0 mm | - | - | - |
| 1778085923 | 22.78° C | 34% | 0 hPa | 0 mm | - | - | - |
| 1778085563 | 23.33° C | 35% | 0 hPa | 0 mm | - | - | - |
| 1778085203 | 23.89° C | 34% | 0 hPa | 0 mm | - | - | - |
| 1778084964 | 24.44° C | 36% | 0 hPa | 0 mm | - | - | - |
| 1778084843 | 24.44° C | 38% | 0 hPa | 0 mm | - | - | - |
| 1778084483 | 24.44° C | 40% | 0 hPa | 0 mm | - | - | - |
| 1778084123 | 25° C | 39% | 0 hPa | 0 mm | - | - | - |
| 1778083763 | 25.56° C | 40% | 0 hPa | 0 mm | - | - | - |
| 1778083403 | 25.56° C | 35% | 0 hPa | 0 mm | - | - | - |
| 1778083043 | 25° C | 38% | 0 hPa | 0 mm | - | - | - |
| 1778082683 | 24.44° C | 41% | 0 hPa | 0 mm | - | - | - |
| 1778081963 | 23.33° C | 46% | 0 hPa | 0 mm | - | - | - |
| 1778081603 | 23.33° C | 47% | 0 hPa | 0 mm | - | - | - |
| 1778081364 | 23.33° C | 47% | 0 hPa | 0 mm | - | - | - |
| 1778081243 | 23.33° C | 47% | 0 hPa | 0 mm | - | - | - |
| 1778080883 | 23.33° C | 48% | 0 hPa | 0 mm | - | - | - |
| 1778080523 | 23.33° C | 47% | 0 hPa | 0 mm | - | - | - |
| 1778080163 | 23.33° C | 44% | 0 hPa | 0 mm | - | - | - |
* Rain latest hour (hover to see other rain measurements)
** Current wind speed in m/s (hover to see current wind gust speed)